30.04.2024;15:00;106
30.04.2024;14:00;106
30.04.2024;13:00;107
30.04.2024;12:00;73
30.04.2024;11:00;44
30.04.2024;10:00;30
30.04.2024;09:00;23
30.04.2024;08:00;9
30.04.2024;07:00;7
30.04.2024;06:00;14
30.04.2024;05:00;33
30.04.2024;04:00;39
30.04.2024;03:00;4
30.04.2024;02:00;9
30.04.2024;01:00;11
30.04.2024;00:00;16
29.04.2024;23:00;43
29.04.2024;22:00;72
29.04.2024;21:00;93
29.04.2024;20:00;109
29.04.2024;19:00;117
29.04.2024;18:00;118
29.04.2024;17:00;119
29.04.2024;16:00;114
29.04.2024;15:00;111
29.04.2024;14:00;109
29.04.2024;13:00;102
29.04.2024;12:00;95
29.04.2024;11:00;92
29.04.2024;10:00;79
29.04.2024;09:00;53
29.04.2024;08:00;18
29.04.2024;07:00;8
29.04.2024;06:00;18
29.04.2024;05:00;37
29.04.2024;04:00;46
29.04.2024;03:00;50
29.04.2024;02:00;56
29.04.2024;01:00;62
29.04.2024;00:00;42
28.04.2024;23:00;46
28.04.2024;22:00;60
28.04.2024;21:00;80
28.04.2024;20:00;89
28.04.2024;19:00;96
28.04.2024;18:00;102
28.04.2024;17:00;106
28.04.2024;16:00;107
